Location: Boiro
(42.6475°N, 8.8834°W)
Time: 01:15:34
(UTC+01:00)

Explorer 7 - Pass Details

Date: 09 December 2021
Orbit: 483 x 674 km, 50.3° (Epoch: 23 January)

Event Time Altitude Azimuth Distance (km) Brightness Sun altitude
Rises 06:29:56 0° 260° (W) 2,885 - -25.6°
Reaches altitude 10° 06:32:23 10° 266° (W) 1,948 - -25.2°
Maximum altitude 06:36:39 44° 339° (NNW) 806 - -24.4°
Exits shadow 06:37:40 37° 17° (NNE) 900 7.9 -24.2°
Drops below altitude 10° 06:40:41 10° 53° (NE) 1,835 10.0 -23.7°
Sets 06:42:56 0° 60° (ENE) 2,697 11.1 -23.3°
